sat.trackr.live / text

‹ back to catalog

STARLINK-5645

NORAD 55429 · 2023-014AQ

PAYLOAD ACTIVE UNKNOWN

§ Identity

Operator
Country
US
Launch date
2023-01-31
Launch site
AFWTR
Launch vehicle
Mass (kg)
RCS (m²)

Purposes: comms

External: N2YO · Heavens-Above · Gunter

§ Orbital elements

Epoch: 2026-09-20T22:00:03.000096Z

Period
95.51 min
Inclination
70.0011°
Eccentricity
0.0001055
Mean motion
15.07674478 rev/d
Perigee alt
542.6 km
Apogee alt
544.0 km
Semi-major
6,921.4 km
B*
5.2627e-3
RAAN
312.2215°
Arg perigee
353.7324°
Mean anomaly
72.4732°
Rev number
566

§ Raw data

STARLINK-56451 55429U 23014AQ  26263.91670139  .00081241  00000+0  52627-2 0  99992 55429  70.0011 312.2215 0001055 353.7324  72.4732 15.07674478  5661

JSON: /api/v1/satellites/55429 · /tle

For live sub-satellite position, see the globe view (requires WebGL).

§ Visibility from observer

Set your observer location to see the next 7 days of passes ≥ 10°. The values pass through the URL so the page stays shareable.

No JS? Fill the form by hand. The geolocation button needs JavaScript.